A/2019 Q2

Japanese version
Home page
Updated on November 9, 2019

---------------------------------------------------------------------

* Profile

Discovery Date August 24, 2019
Magnitude 18.75 mag
Discoverer ATLAS-MLO, Mauna Loa

* Orbital Elements

Epoch 2019 Oct. 4.0 TT = JDT 2458760.5                                          
T 2019 July 22.25594 TT                                 Williams                
q   1.2573213            (2000.0)            P               Q                  
z  +0.0199678      Peri.  176.15612     +0.97958165     +0.19488822             
 +/-0.0023188      Node   187.92769     +0.17359048     -0.69599172             
e   0.9748941      Incl.  159.02109     +0.10142057     -0.69109631             
H   18.0                                                                        
From 49 observations 2019 Aug. 24-Sept. 5, mean residual 0".5.                  

* Magnitudes Graph

        H = 18.0  G = 0.15

---------------------------------------------------------------------

The orbital elements are published on M.P.E.C. 2019-R101.
The magnitudes graphs are made with Comet for Windows.

---------------------------------------------------------------------

Copyright(C) Seiichi Yoshida (comet@aerith.net). All rights reserved.